weather.gov     
National Weather Service

Other Surface Observations
NWS Homepage
This page is being discontinued on March 12, 2014.
The same data is available at this site. Please update your bookmarks.
Thank you, and we apologize for the inconvenience.
Please send an email to SR-SRH.Webmaster@noaa.gov with any concerns.


Current Version
Previous Version:    01  02  03  04  05  06  07  08  09  10  11  12  13  14  15  16  17  18  19  20  21  22  23  24  25  26  27  28  29  30  
   31  32  33  34  35  36  37  38  39  40  41  42  43  44  45  46  47  48  49  50  51  52  53  54  55  56  57  58  59  60  
[Printable]
269
SXUS52 KTAE 301218
OSOTAE
OSOTAE
North Florida/South Alabama/Southwest Georgia Weather Roundup
National Weather Service Tallahassee Florida
800 AM EDT THU OCT 30 2014

Note: "fair" indicates few or no clouds below 12,000 feet with no
significant weather and/or obstructions to visibility.

!FLZ017-115-028-034-025-301300
...North Florida...

CITY           SKY/WX    TMP DP  RH WIND       PRES   REMARKS
TALLAHASSEE    PTCLDY    63  49  60 N5        30.01R
APALACHICOLA   CLOUDY    68  64  87 N12       30.00R
PERRY          CLOUDY    63  63 100 N3        30.00R
CROSS CITY       N/A     65  64  97 N7        29.98R
JACKSONVILLE   PTCLDY    59  59 100 W5        29.98R FOG
$$

!FLZ112-006-005-002-011-301300
...Florida Panhandle...

CITY           SKY/WX    TMP DP  RH WIND       PRES   REMARKS
MARIANNA       LGT RAIN  62  48  60 N9        30.04R
BONIFAY        CLOUDY    60  51  72 N7        30.05R
PANAMA CITY NW CLOUDY    63  52  67 N9        30.01R
TYNDALL AFB    MOCLDY    64  55  72 NE12G18   30.02R
TYND DRONE APT PTSUNNY   64  57  77 MISG      30.00R
DE FUNIAK SPR  FAIR      58  52  81 N7        30.05R
EGLIN AFB      PTCLDY    60  52  75 N7        30.04R
DESTIN         CLOUDY    63  52  67 NE12G18   30.04R
HURLBURT       PTCLDY    60  47  62 NE12      30.03R
CRESTVIEW      CLEAR     57  53  86 N5        30.06R
PENSACOLA      MOCLDY    61  51  70 N7        30.05R
$$

!ALZ063-066-301300
...South Alabama...

CITY           SKY/WX    TMP DP  RH WIND       PRES   REMARKS
DOTHAN         CLEAR     55  49  80 N5        30.08R
OZARK CAIRNS   CLEAR     56  49  78 N6        30.06R
FT RUCKER HELI PTCLDY    54  50  86 N3        30.05R
RUCKER HELI 3  FAIR      55  49  82 N6        30.08R
RUCKER HELI 2  FAIR      56  47  71 N7        30.06R
FLORALA APT    CLEAR     56  50  80 N5        30.08R
ANDALUSIA      PTCLDY    59  50  72 CALM      30.07R
TROY           CLEAR     51  48  89 N5        30.08S
EUFALA         FAIR      52  48  86 CALM      30.06R
MOBILE         PTCLDY    53  51  93 N8        30.08R
$$

!GAZ120>161-301300
...Southwest and South Central Georgia...

CITY           SKY/WX    TMP DP  RH WIND       PRES   REMARKS
THOMASVILLE    CLOUDY    61  52  72 N7        30.03S
BAINBRIDGE     CLOUDY    63  50  63 N6        30.04R
MOODY AFB      MOCLDY    60  47  61 N7        30.01R
VALDOSTA       MOCLDY    61  46  57 CALM      30.01R
MOULTRIE       MOCLDY    59  52  77 CALM      30.03S
BLAKELY        PTCLDY    55  52  88 N3        30.05S
ALBANY         CLEAR     55  48  77 N3        30.05S
TIFTON         MOCLDY    57  47  71 N5        30.01S
FITZGERALD     FAIR      57  45  63 N6        30.04S
CORDELE        FAIR      53  48  83 CALM      30.04S
AMERICUS       FAIR      52  45  76 N6        30.06R
HOMERVILLE     CLOUDY    63  55  77 N5        30.00S
$$

!GMZ750-755-770-775-301300
...Coastal and Buoy Obs...

STATION/POSITION TIME  TEMP    WIND        PRES    VSBY  WAVE
                       AIR SEA DIR/SP/G                  HT/PER
                 (UTC) (F)     (DEG/KT/KT) (MB)    (MI)  (FT/S)
KEATON BEACH     1200   65      30/  8/ 12 1015.5R
CEDAR KEY        1156   71      10/  2/  3 1015.8R
C TOWER          1200   69      20/ 18/ 19 1015.2R
APALACHICOLA BUO 1200   77 80   40/  4/  6 1014.7R         1/ 5
PANAMA CITY BUOY 1126   75 79   30/ 17/ 19 1014.4R         2/ 3
MOBILE BUOY      1059   71 78   20/ 14/ 16 1016.9R         4/ 5
ORANGE BCH AL BU 1200   67 78   30/ 16/ 19 1016.2R         3/ 4
$$




U.S. Dept. of Commerce
NOAA National Weather Service
1325 East West Highway
Silver Spring, MD 20910
E-mail: w-nws.webmaster@noaa.gov
Page last modified: May 16, 2007
NATIONAL WEATHER SERVICE: for Safety, for Work, for Fun - FOR LIFE